Location: Glencliff
(36.1226°N, 86.7183°W)
Time: 01:03:05
(UTC+00:00)

Cosmos 1844 Rocket - Pass Details

Date: 25 August 2019
Orbit: 823 x 846 km, 71.0° (Epoch: 18 September)

Event Time Altitude Azimuth Distance (km) Brightness Sun altitude
Exits shadow 10:34:15 - 215° (SW) 3,017 5.1 -8.3°
Reaches altitude 10° 10:35:48 10° 218° (SW) 2,448 4.6 -8.0°
Maximum altitude 10:41:17 53° 295° (WNW) 1,027 2.9 -7.0°
Drops below altitude 10° 10:46:49 10° 12° (NNE) 2,471 5.6 -5.9°
Sets 10:49:21 0° 17° (NNE) 3,411 6.4 -5.4°
